Weather in Orekhovo

Russia / Tomsk District     57°13′23″N   86°41′09″E
temp.,
°C
wind,
m/s
gust,
m/s
humid.,
%
clouds,
%
prec.,
mm/h
press.,
hPa
HPBL,
m
29 july, thu
thu2901:00+14s1171100 0.0 101015
04:00+13wsw117384 0.0 100911
07:00+14sse117299 0.0 100920
10:00+17s2363100 0.0 1009267
13:00+18ssw3561100 0.0 1009497
16:00+22ssw344090 0.0 10082355
19:00+19s245778 0.0 1008194
22:00+14s257551 0.0 100974
30 july, fri
fri3001:00+12sse237652 0.0 100947
04:00+13s2270100 0.0 100957
07:00+14sse2470100 0.0 1010120
10:00+19sse2455100 0.0 1010457
13:00+22ssw3343100 0.0 10101550
16:00+22wsw444937 0.0 10101586
19:00+20w34593 0.1 1011957
22:00+13w227810 0.0 101229
31 july, sat
sat3101:00+12sw22733 0.0 101330
04:00+11sw257698 0.0 101494
07:00+13s247580 0.0 1015100
10:00+19s465185 0.0 1015603
13:00+22ssw4642100 0.0 10141504
16:00+23s4640100 0.0 10131967
19:00+22s3655100 0.0 1012526
22:00+18ssw2762100 0.0 1013152
1 august, sun
sun101:00+18s275396 0.0 1012162
04:00+14sw267098 0.0 1012138
07:00+15wsw1274100 0.0 101278
10:00+15nnw018772 0.4 101285
13:00+21ssw245795 0.6 10101132
16:00+20sw348113 1.7 1010794
19:00+18wnw24920 5.3 1009231
22:00+14nw11940 0.4 100913
2 august, mon
mon201:00+12n23970 0.4 100850
04:00+11nnw11970 0.0 100816
07:00+12nnw12974 0.0 100780
10:00+17nw11710 0.0 1006649
13:00+22w11470 0.0 10051472
16:00+23w11420 0.0 10041797
19:00+21sw235539 0.0 1003261
22:00+15nnw1175100 0.0 100311